Chinook Pass
Chinook Pass
Latest observation 08/31 21:00 PDT
| Time (PDT) | Temp °F 6240' | Temp °F 5500' | RH % 6240' | RH % 5500' | Spd mph 6240' | Gust mph 6240' | Dir ° 6240' | Pcp1 in 5500' | PcpSum in 5500' | SnoHt in 5500' | EqTemp °F 5500' |
|---|---|---|---|---|---|---|---|---|---|---|---|
| 08/31 21:00 | 55 | 57 | 47 | 45 | 12 | 19 | 59 | 0.00 | 0.00 | -0.7 | 56 |
| 08/31 20:00 | 56 | 59 | 45 | 41 | 12 | 19 | 59 | 0.00 | 0.00 | -0.8 | 58 |
| 08/31 19:00 | 58 | 60 | 42 | 40 | 6 | 16 | 56 | 0.00 | 0.00 | -0.6 | 61 |
| 08/31 18:00 | 60 | 63 | 37 | 37 | 7 | 20 | 78 | 0.00 | 0.00 | -0.7 | 66 |
| 08/31 17:00 | 66 | 69 | 26 | 28 | 11 | 30 | 222 | 0.00 | 0.00 | -0.4 | 83 |
| 08/31 16:00 | 65 | 68 | 27 | 29 | 9 | 25 | 219 | 0.00 | 0.00 | -0.7 | 71 |
| 08/31 15:00 | 65 | 68 | 30 | 31 | 7 | 20 | 181 | 0.00 | 0.00 | -0.9 | 81 |
| 08/31 14:00 | 63 | 66 | 34 | 35 | 13 | 30 | 103 | 0.00 | 0.00 | -0.7 | 83 |
| 08/31 13:00 | 63 | 63 | 39 | 41 | 10 | 24 | 71 | 0.00 | 0.00 | -1.3 | 78 |
| 08/31 12:00 | 61 | 59 | 45 | 50 | 12 | 18 | 70 | 0.00 | 0.00 | -0.3 | 76 |
| 08/31 11:00 | 54 | 55 | 60 | 59 | 16 | 25 | 70 | 0.00 | 0.00 | -1.1 | 70 |
| 08/31 10:00 | 55 | 53 | 53 | 63 | 17 | 24 | 79 | 0.00 | 0.00 | -0.6 | 55 |
| 08/31 09:00 | 53 | 52 | 56 | 65 | 15 | 21 | 68 | 0.00 | 0.00 | -0.8 | 53 |
| 08/31 08:00 | 51 | 50 | 55 | 69 | 16 | 24 | 72 | 0.00 | 0.00 | -0.3 | 51 |
| 08/31 07:00 | 50 | 48 | 57 | 68 | 14 | 22 | 81 | 0.00 | 0.00 | -0.4 | 47 |
| 08/31 06:00 | 50 | 50 | 59 | 62 | 12 | 23 | 85 | 0.00 | 0.00 | -0.6 | 47 |
| 08/31 05:00 | 51 | 51 | 52 | 58 | 8 | 12 | 94 | 0.00 | 0.00 | -0.7 | 48 |
| 08/31 04:00 | 52 | 51 | 53 | 56 | 15 | 22 | 157 | 0.00 | 0.00 | -0.3 | 48 |
| 08/31 03:00 | 52 | 50 | 52 | 61 | 20 | 25 | 167 | 0.00 | 0.00 | -0.5 | 48 |
| 08/31 02:00 | 51 | 50 | 59 | 67 | 15 | 23 | 150 | 0.00 | 0.00 | -0.6 | 47 |
| 08/31 01:00 | 52 | 50 | 62 | 68 | 13 | 18 | 185 | 0.00 | 0.00 | -0.5 | 47 |
| 08/31 00:00 | 52 | 50 | 60 | 70 | 10 | 13 | 170 | 0.00 | 0.00 | -1.0 | 46 |
| 08/30 23:00 | 51 | 49 | 67 | 73 | 3 | 11 | 98 | 0.00 | 0.00 | -0.5 | 46 |
| 08/30 22:00 | 50 | 49 | 69 | 74 | 0 | 0 | 123 | 0.00 | 0.00 | -0.9 | 46 |

